Find Starlink 30246

NORAD ID: 57615 Int'l Des: 2023-119 Owner: SPXS Country: US Constellation: starlink operational
LEOCIRCULAR

当前视图

正在加载3D地球...

About Starlink 30246

Starlink 30246 (NORAD 57615) is a starlink constellation satellite (v2 mini) launched Aug 11, 2023 by SPXS of US. It operates in LEO, CIRCULAR orbit with a mass of 730.00 kg.

关于 Starlink 30246

正在加载描述...

即将过境

Passes for default location (London). Set your location on the main map for personalized predictions.

高度历史

Loading altitude history...

两行轨道根数

1 57615U 23119P 26169.88427447 .00000886 00000-0 41721-4 0 9999
2 57615 43.0026 229.9939 0001122 267.7854 92.2869 15.27576164158564
Epoch: Jun 18, 2026 • Age: 33 hours

当前状态

高度 486.9 km
速度 7.63 km/s
星下点 43.04°N, 49.8°W
发射日期 Aug 11, 2023
运行时间 2.8 years
类型 internet

技术详情

分类 Payload
质量 730.00 kg
干质量 700.00 kg
总质量 730.00 kg
长度 0.30 m
直径 4.10 m
跨度 29.00 m
形状 Box + pan
制造商 SPXS
平台类型 Starlink V2M
阶段状态 In Orbit
所有者/国家 SPXS/US

Most Searched